Hourly Data Report for June 21, 2018

OTTAWA INTL A
ONTARIO
Current Station Operator: NAVCAN

45°19'00.000" N
75°40'00.000" W
114.90 m
6106001
71628
YOW

Download Data

Hourly Data (June 2018)
Hourly Data Report for June 21, 2018
TIME
LST
Temp Definition
°C
Dew Point Definition
°C
Rel Hum Definition
%
Precip. Amount Definition
mm

Wind Dir Definition
10's deg

Wind Spd Definition
km/h
Visibility Definition
km
Stn Press Definition
kPa
Hmdx Definition


Wind Chill Definition


Weather Definition


00:00 17.3 11.8 70   34 14 24.1 99.71     LegendNANA
01:00 16.3 5.9 50   34 20 24.1 99.74     Mostly Cloudy
02:00 14.9 5.6 53   35 18 24.1 99.76     LegendNANA
03:00 13.2 4.9 57   36 16 24.1 99.80     LegendNANA
04:00 11.9 4.8 62   36 18 24.1 99.84     Mainly Clear
05:00 11.4 4.8 64   36 17 24.1 99.90     LegendNANA
06:00 12.2 3.9 57   36 27 24.1 99.98     LegendNANA
07:00 13.2 4.3 54   2 26 24.1 100.03     Clear
08:00 14.6 5.4 54   1 17 24.1 100.08     LegendNANA
09:00 15.6 4.8 48   1 12 24.1 100.07     LegendNANA
10:00 16.6 4.1 43   1 10 24.1 100.07     Clear
11:00 17.8 4.4 41   35 22 24.1 100.08     LegendNANA
12:00 18.3 2.6 35   33 21 24.1 100.08     LegendNANA
13:00 19.6 3.2 33   34 17 24.1 100.07     Clear
14:00 19.6 3.7 34   34 14 24.1 100.05     LegendNANA
15:00 20.4 4.3 34   36 8 24.1 100.00     LegendNANA
16:00 20.6 3.4 32   35 15 24.1 99.99     Clear
17:00 20.7 3.2 31   3 19 24.1 99.98     LegendNANA
18:00 19.9 2.4 31   36 13 24.1 100.02     LegendNANA
19:00 19.0 3.4 35   1 16 24.1 100.04     Clear
20:00 17.5 3.8 40   1 15 24.1 100.10     LegendNANA
21:00 16.2 3.8 43   1 10 24.1 100.17     LegendNANA
22:00 14.5 4.3 50   2 11 24.1 100.20     Clear
23:00 12.6 4.5 58   3 7 24.1 100.22     LegendNANA

Notes on Data Quality.

Legend

  • E = Estimated
  • M = Missing
  • NA = Not Available*
  • [empty] = Indicates an unobserved value
Date modified: